Regional Weather Roundup
Issued by NWS

Home | Current Version | Previous Version | Graphics & Text | Print | Product List | Glossary On
Versions: 1 2 3 4 5 6 7 8 9 10 11 12 13 14 15 16 17 18 19 20 21 22 23 24 25 26 27 28 29 30 31 32 33 34 35 36 37 38 39 40 41 42 43 44 45 46 47 48 49 50
000
ASUS45 KTFX 240519
RWRMT
MONTANA HOURLY WEATHER ROUNDUP
NATIONAL WEATHER SERVICE GREAT FALLS MT
1119 PM MDT WED JUL 23 2014

NOTE: "FAIR" INDICATES FEW OR NO CLOUDS BELOW 12000 FEET WITH NO
SIGNIFICANT WEATHER AND/OR OBSTRUCTIONS TO VISIBILITY.

* THESE STATIONS ARE NOT UNDER NWS QUALITY CONTROL. THEY DO NOT
   REPORT WEATHER SUCH AS PRECIPITATION OR FOG.

MTZ001>007-043-240600-
WEST OF THE DIVIDE
CITY           SKY/WX    TMP DP  RH WIND       PRES   REMARKS
KALISPELL      MOCLDY    66  54  65 VRB3      29.95R
MISSOULA       PTCLDY    73  52  48 NW12      29.92R
BUTTE          PTCLDY    61  52  72 E5        30.03F
MULLAN PASS    FOG       48  48 100 NW6       30.13S VSB M1/4
* ESSEX        N/A       63  57  81 N/A        N/A
* LINCOLN      N/A       57  56  96 W2G9       N/A
* LOOKOUT PASS N/A       55  53  93 NE9        N/A
* POLSON       N/A       67  49  53 NW3G9      N/A
* RONAN APT    PTCLDY    75  52  45 W11G18     N/A
* SEELEY LAKE  N/A       66  43  43 N4         N/A
* THOMP F APT  PTCLDY    70  28  21 NE5        N/A
$$

MTZ008-052>055-240600-
SOUTHWEST MONTANA
CITY           SKY/WX    TMP DP  RH WIND       PRES   REMARKS
BOZEMAN        CLEAR     66  52  61 S6        29.93S
DILLON         CLEAR     64  32  30 SE9       29.97F
W YELLOWSTONE  CLEAR     54  41  62 CALM      30.14F
* THREE FORKS  CLEAR     73  57  57 N/A        N/A
* BOULDER HILL N/A       59  49  70 S11        N/A
* MONIDA PASS  N/A       69  27  21 S11        N/A
* RAYNOLDS PAS N/A       64  45  50 SE13       N/A
* WHITEHALL    N/A       71  45  39 SW1G11     N/A
* WISE RIVER   N/A       61  51  70 SW5        N/A
$$

MTZ009>010-012-014-046-048-049-054-240600-
EAST SLOPES AND CENTRAL MONTANA
CITY           SKY/WX    TMP DP  RH WIND       PRES   REMARKS
CUT BANK       CLOUDY    66  54  65 NW13      29.87S
GREAT FALLS    MOCLDY    66  55  68 CALM      29.88F
HELENA         PTCLDY    70  54  57 W6        29.91S
MALMSTROM AFB  CLOUDY    68  55  63 E10       29.89F
* CONRAD       MOCLDY    73  55  53 SE5        N/A
* DEARBORN     N/A       72  56  57 NE1        N/A
* EAST GLACIER N/A       65  47  52 NW3        N/A
* MONARCH      N/A       63  45  52 S12G17     N/A
* SAINT MARY   N/A       67  51  57 NE4G10     N/A
* SWEET GRASS  N/A       72  56  57 E8         N/A
* WHITE SULPH  N/A       67  46  47 N3G10      N/A
$$

MTZ011-013-016-021-035-040-045-047-050-051-240600-
NORTH CENTRAL MONTANA
CITY           SKY/WX    TMP DP  RH WIND       PRES   REMARKS
HAVRE          CLOUDY    79  61  54 E9        29.83R
LEWISTOWN      TSTM      70  50  49 N18G33    29.95R
* FORT BENTON  CLOUDY    72  57  59 N3        29.87F
* CHESTER      N/A       79  47  32 SE3G9      N/A
* DENTON       N/A       74  48  40 S22G30     N/A
* JUDITH GAP   N/A       74  52  46 N/A        N/A
* LOMA         N/A       65  59  81 SW41G63    N/A
$$

MTZ017>020-022>027-061-062-240600-
NORTHEAST MONTANA
CITY           SKY/WX    TMP DP  RH WIND       PRES   REMARKS
GLASGOW        MOCLDY    81  63  54 E18       29.86F HI  82
GLENDIVE       PTCLDY    75  57  54 SE16G23   29.93F
JORDAN         CLEAR     81  63  54 E13       29.84F HI  82
SIDNEY         MOCLDY    75  57  54 SE7       29.96F
WOLF POINT     PTCLDY    81  61  51 E16       29.91R HI  82
* BEAVER HILL  N/A       71  59  66 SE27G37    N/A
* CIRCLE       N/A       77  63  62 E14G22     N/A
* LINDSAY DVD  N/A       72  60  66 E18G24     N/A
* NAVAJO       N/A       69  64  84 E8         N/A
$$

MTZ028>042-056>058-240600-
SOUTHCENTRAL AND SOUTHEAST MONTANA
CITY           SKY/WX    TMP DP  RH WIND       PRES   REMARKS
BAKER          CLEAR     70  57  64 SE25G33   29.96F
BILLINGS       FAIR      82  61  49 NE3       29.87F HI  83
LIVINGSTON     CLEAR     77  48  36 E8        29.94F
MILES CITY     CLEAR     82  61  49 SE15G25   29.84F HI  83
* LAUREL APT   CLEAR     75  61  62 N/A        N/A
* ROUNDUP APT  CLEAR     79  55  44 N/A        N/A
* ALZADA       N/A       75  67  76 W7         N/A
* HYSHAM       N/A       80  57  45 E2         N/A   HI  80
* LAME DEER    N/A       77  54  45 SE10       N/A
* REED POINT   N/A       72  58  62 NW1        N/A
* ROSCOE HILL  N/A       71  52  51 SW5        N/A
$$

REGIONAL REPORTS...DAKOTAS
CITY           SKY/WX    TMP DP  RH WIND       PRES   REMARKS
WILLISTON      PTCLDY    73  61  66 E12       29.99S
DICKINSON      CLEAR     68  57  68 SE16      30.02F
CROSBY         N/A       64  64 100 E13       30.03F
TIOGA          CLEAR     66  66 100 E12       30.07F
WATFORD CITY   CLEAR     72  59  64 SE16G28   29.99S
BISMARCK       MOCLDY    68  59  73 SE13      30.10S
GRAND FORKS    PTCLDY    64  57  78 E5        30.16F
FARGO          CLEAR     64  59  84 E5        30.16F
BUFFALO SD     CLOUDY    72  57  59 E17       29.95F
RAPID CITY     PTCLDY    70  63  79 S8        30.03F
$$

REGIONAL REPORTS...WYOMING/IDAHO/WASHINGTON
CITY           SKY/WX    TMP DP  RH WIND       PRES   REMARKS
GILLETTE       PTCLDY    81  59  47 S22       29.98F HI  81
SHERIDAN       MOCLDY    73  55  53 SE3       29.93F
YELLOWSTONE LA CLEAR     54  41  62 CALM      30.29F
SALMON         PTCLDY    73  45  37 SW10      29.91S
MULLAN PASS    FOG       48  48 100 NW6       30.13S VSB M1/4
SAND POINT     MOCLDY    61  61 100 S6        30.02R
SPOKANE        MOCLDY    61  52  72 S13       30.04R
$$

REGIONAL REPORTS...ALBERTA
CITY           SKY/WX    TMP DP  RH WIND       PRES   REMARKS
CALGARY        TSTM      61  54  78 S28G45    29.93R
LETHBRIDGE     LGT RAIN  63  59  87 W13G21    29.90R
MEDICINE HAT   FAIR      73  55  53 CALM      29.81F
EDMONTON       MOCLDY    59  54  84 S7        29.84S
WATERTON GATE  N/A       59  54  84 S9         N/A
CARDSTON       N/A       61  57  87 NW9        N/A
MILK RIVER     N/A       68  57  68 E7         N/A
$$

REGIONAL REPORTS...SASKATCHEWAN
CITY           SKY/WX    TMP DP  RH WIND       PRES   REMARKS
SWIFT CURRENT  CLEAR     70  64  81 SE15G22   29.90F
REGINA         MOCLDY    68  63  84 SE16      30.02S
VAL MARIE      N/A       75  63  66 E18G25     N/A
ASSINIBOIA     N/A       70  64  81 E16        N/A
CORONACH       N/A       72  64  76 E14G22     N/A

$$



USA.gov is the U.S. government's official web portal to all federal, state and local government web resources and services.